Theta_e
316 316 316 315 315 315 315 315 315 315 315 315 314 314 314 314 314 314 314 314 314 314 313 311 311 312 305 296 296 302 303 302 302 300 297 295 294 294 291 291 290 289 290 290 291 291 290
319 318 318 318 317 316 316 316 316 315 315 315 314 314 314 314 314 314 314 314 314 313 313 311 311 311 302 290 301 302 301 301 301 299 297 297 294 294 291 290 289 291 290 290 291 290 291
320 320 320 320 320 318 317 317 317 316 316 315 315 315 314 314 314 313 313 314 312 311 312 310 311 307 296 295 301 302 301 300 301 300 296 298 297 294 293 289 292 290 287 290 289 289 288
321 321 321 320 320 320 319 318 318 317 316 316 315 315 315 314 314 313 313 313 310 310 311 310 310 302 294 300 303 300 301 299 301 301 300 300 299 295 293 292 289 287 287 287 291 288 288
322 322 322 322 321 320 321 320 319 318 317 316 316 315 315 314 314 313 311 308 307 310 308 307 304 299 293 302 296 299 300 297 298 299 299 298 297 292 292 290 289 288 284 286 287 288 286
320 320 321 321 322 322 321 321 320 319 318 317 316 316 315 315 314 313 307 306 306 308 304 299 297 293 293 292 296 297 299 298 295 295 294 294 293 290 290 289 284 284 283 285 285 288 288
318 318 319 321 320 322 322 321 321 320 319 318 317 316 315 314 313 309 304 304 299 297 296 294 293 291 292 295 297 295 297 295 295 292 289 291 287 286 289 287 286 285 283 283 288 287 283
317 317 317 317 318 318 318 319 321 320 320 319 317 316 315 313 311 305 304 297 296 296 290 293 292 292 294 295 290 293 297 291 290 288 289 287 285 288 287 286 285 285 283 284 286 285 284
316 316 316 316 316 315 315 316 316 316 317 318 317 316 314 313 307 305 299 297 301 301 292 290 291 291 291 293 290 291 293 291 289 287 287 285 287 287 285 285 284 285 283 283 281 283 285
314 315 314 314 314 314 314 314 314 314 315 315 317 316 313 310 303 302 297 300 303 302 290 288 287 290 292 292 288 293 293 291 288 285 286 286 287 285 284 284 283 280 284 282 280 278 278
313 313 314 313 312 312 312 312 312 312 313 313 313 316 311 305 305 301 298 302 303 300 283 287 286 294 292 289 289 289 293 290 286 287 286 286 284 283 282 284 283 283 284 282 279 277 276
310 311 311 311 311 311 311 311 311 311 311 312 313 315 307 304 304 300 302 302 299 289 283 284 287 286 286 288 288 289 289 291 289 285 286 286 287 285 285 284 284 284 282 281 277 278 273
309 309 308 309 309 309 309 309 309 309 310 311 312 310 304 302 297 300 299 297 287 285 288 285 283 285 285 284 285 286 285 284 284 283 283 283 283 285 283 282 284 284 282 281 278 277 278
307 307 307 307 307 307 307 307 308 309 311 311 310 304 300 299 300 300 298 293 284 287 287 285 284 284 282 285 284 285 284 283 284 283 283 284 283 282 283 281 278 279 280 279 272 276 277
305 305 305 305 305 306 305 306 307 310 310 311 306 303 299 298 299 300 297 285 286 289 284 283 284 283 286 283 283 283 284 284 285 284 284 283 283 282 281 281 281 279 280 279 275 273 270
303 302 303 303 303 304 304 304 305 306 309 309 303 298 294 297 299 299 289 288 288 284 284 285 283 285 283 283 281 281 284 285 283 284 284 282 281 281 280 281 281 280 281 276 276 272 271
300 301 301 301 301 302 302 303 304 305 307 308 302 294 297 298 298 293 285 286 284 284 285 285 285 283 283 282 282 283 284 283 285 282 284 282 280 280 279 277 280 278 278 277 277 275 273
299 299 299 299 300 300 300 300 302 305 306 304 299 288 297 297 287 285 285 285 285 283 285 284 283 283 284 283 283 283 282 284 286 285 281 283 282 280 283 277 278 279 280 280 277 273 275
298 298 298 298 298 299 299 300 303 305 308 302 295 293 298 297 285 285 285 285 284 283 284 284 284 285 283 281 281 283 282 284 285 284 282 283 282 280 280 277 277 276 277 277 276 275 274
298 297 298 298 298 298 298 300 303 305 308 304 295 286 289 292 288 286 285 286 284 286 284 284 285 284 281 280 281 280 280 283 284 284 284 284 281 279 281 280 277 275 276 275 276 275 277
299 298 297 298 297 297 298 300 301 303 307 303 296 287 287 285 286 287 285 285 284 284 284 285 284 283 282 281 279 278 280 281 283 285 283 282 278 275 277 278 272 274 275 274 273 276 275
298 299 299 297 297 297 297 299 300 302 305 298 293 289 289 287 288 286 285 286 285 286 286 284 282 284 284 281 281 279 280 281 281 283 281 281 279 274 274 271 268 270 274 273 274 275 273
298 298 298 297 297 297 297 298 299 301 304 297 297 295 295 288 287 285 287 286 287 287 289 288 285 284 281 284 283 283 284 283 283 282 280 279 279 277 278 273 274 274 272 272 274 275 275
299 298 297 297 297 297 296 297 298 299 301 299 296 297 292 285 286 287 288 288 287 286 285 286 285 283 283 285 284 283 282 281 282 282 284 278 276 277 276 276 277 281 272 275 275 276 275
300 298 298 297 297 296 296 296 296 297 299 299 300 295 292 285 287 289 287 288 287 287 285 285 286 286 286 284 281 278 277 276 276 278 279 280 279 277 274 277 283 280 272 274 275 283 279
302 300 299 298 297 297 296 295 295 296 298 299 299 299 294 287 288 290 289 288 285 285 284 283 284 286 285 283 280 276 276 278 275 274 280 279 279 277 275 274 278 287 279 279 279 283 281
300 301 300 299 298 297 297 296 295 295 296 297 297 300 295 287 291 288 288 287 287 285 283 282 282 281 284 281 278 278 278 274 276 273 271 274 275 273 274 276 282 284 280 281 281 287 280
299 299 300 301 300 298 297 296 296 294 294 296 296 299 294 288 290 291 292 289 287 287 284 283 282 281 281 279 280 281 278 278 274 279 274 275 274 273 276 275 276 281 279 282 289 280 281
297 297 297 299 301 300 298 297 296 295 294 294 292 296 295 289 287 290 292 293 293 290 288 284 285 283 285 282 282 282 278 278 277 278 279 274 281 280 279 282 285 282 285 285 282 285 281
Wind_Speed
3 2 1 1 2 3 5 6 7 8 9 10 10 11 11 13 14 14 14 12 11 8 7 4 2 2 4 5 1 4 4 3 3 2 2 1 2 1 4 1 2 6 3 3 7 8 12
6 4 4 3 3 3 4 5 7 8 9 10 10 11 11 12 13 14 14 14 12 9 6 4 2 1 4 6 5 5 2 1 5 3 4 2 3 1 1 1 5 4 9 10 5 6 9
6 6 6 5 5 5 5 6 6 7 9 9 11 12 13 13 14 15 15 14 13 7 5 4 2 5 5 2 2 5 0 2 3 3 1 4 4 3 1 3 1 4 8 7 5 1 5
7 6 6 7 7 7 7 6 7 8 8 9 10 11 13 15 16 17 16 13 7 1 4 3 2 4 3 2 0 2 1 2 2 3 3 3 3 2 3 1 3 5 3 8 6 3 2
7 7 9 9 9 8 8 8 8 8 9 9 9 10 13 14 16 17 16 10 2 4 2 2 4 4 2 4 4 3 1 3 1 0 0 1 3 3 4 6 7 7 8 11 8 6 3
8 8 8 8 10 9 8 8 9 9 9 9 9 10 12 14 15 16 15 4 3 6 3 3 2 4 3 2 5 2 2 1 3 2 4 4 4 6 7 6 5 9 8 7 14 3 11
8 10 12 10 7 8 8 8 8 9 9 9 9 9 12 14 16 13 8 4 4 5 4 5 2 3 3 4 2 2 1 3 3 4 5 3 6 9 3 2 6 8 10 16 17 7 10
9 9 11 13 14 14 13 9 9 8 9 9 9 9 12 14 15 10 5 4 4 5 9 4 2 1 1 1 4 3 3 5 5 7 2 5 9 5 2 3 8 11 15 17 6 6 16
9 8 9 11 11 11 11 12 13 13 13 10 8 9 10 13 8 2 5 4 1 2 7 2 1 2 1 3 2 4 3 1 6 7 9 10 3 3 3 7 10 13 12 12 14 19 11
6 6 9 9 9 10 11 12 13 13 12 13 11 8 7 13 3 2 2 2 1 1 5 3 2 2 2 1 3 2 2 3 4 4 3 9 4 4 7 9 2 6 3 9 15 12 5
7 6 7 7 8 9 9 10 12 13 13 13 15 11 3 5 5 3 4 0 2 4 6 3 2 1 1 4 2 3 1 3 7 3 2 1 3 5 3 4 2 8 14 14 9 4 9
7 9 8 8 9 10 8 10 13 14 15 13 14 9 2 1 0 4 4 2 3 2 8 2 2 1 2 3 2 1 3 2 2 4 7 7 1 2 2 5 6 12 10 4 1 2 4
10 8 8 10 10 8 12 14 14 15 17 14 16 9 4 2 1 5 2 2 2 5 1 1 0 2 2 2 3 2 3 6 5 3 5 3 5 3 1 5 4 7 9 4 3 3 3
10 10 10 11 12 14 13 15 17 20 19 13 4 8 7 5 4 5 2 0 7 2 3 1 1 2 5 3 3 3 4 6 7 4 4 3 4 5 2 2 2 4 5 2 8 7 11
11 9 11 11 13 13 13 15 18 20 22 2 9 2 3 5 6 4 2 3 4 1 3 3 2 2 3 2 4 4 8 4 2 8 5 3 3 5 4 2 1 3 2 3 4 3 5
8 8 10 11 13 14 13 16 17 20 22 13 2 2 2 6 6 2 1 5 4 3 3 2 7 4 4 2 2 3 5 2 5 1 1 2 5 3 5 2 1 4 7 3 3 6 8
10 11 11 12 13 13 14 15 17 18 20 6 1 1 3 5 1 0 3 4 2 1 3 3 1 3 4 2 5 3 3 3 2 5 1 4 2 4 3 6 4 4 4 2 2 2 5
6 8 10 10 10 11 13 13 16 17 17 2 2 2 3 3 1 0 2 2 1 1 2 3 5 6 4 1 4 2 5 3 2 6 3 4 2 6 1 4 1 1 3 4 3 5 5
3 6 5 8 9 8 11 10 15 18 17 1 3 1 2 2 1 1 1 3 2 3 3 2 3 4 3 2 5 4 3 3 2 2 1 4 3 5 4 3 2 4 5 3 3 2 7
5 3 6 7 9 9 10 10 15 19 16 3 3 1 1 1 1 2 2 2 3 4 3 4 3 2 1 4 5 4 3 1 1 1 1 3 3 6 5 2 2 4 8 10 5 4 3
6 5 4 6 8 8 11 12 14 18 8 1 1 2 1 2 3 3 1 2 2 2 4 4 3 9 5 4 2 4 4 2 3 4 1 2 5 2 8 6 3 7 5 13 14 5 7
9 7 7 4 7 7 10 13 14 18 11 1 3 2 2 2 2 4 4 2 3 2 4 3 6 2 8 5 2 2 2 3 2 7 3 1 3 3 6 3 3 6 10 11 14 11 15
10 9 6 5 6 5 8 12 13 17 12 1 2 1 2 3 2 2 3 3 2 0 5 4 4 4 6 8 4 7 7 5 4 3 7 3 3 3 5 1 6 7 8 14 8 9 6
13 12 8 7 6 5 5 9 11 12 12 2 1 1 1 3 3 4 2 4 3 4 4 1 3 3 3 2 2 4 1 1 3 3 3 4 2 2 6 4 4 1 3 3 7 7 18
15 14 12 10 7 5 5 6 8 10 11 2 2 1 1 3 3 6 6 3 3 3 3 3 2 3 3 1 3 4 2 2 3 3 5 2 2 3 4 5 8 3 6 8 7 6 19
17 16 14 12 10 8 4 3 5 8 8 3 1 1 2 2 3 4 2 1 3 2 2 1 2 1 2 2 1 3 3 1 3 4 4 4 1 3 1 4 4 1 4 5 3 5 7
7 15 18 15 13 11 8 5 2 4 7 3 2 2 2 1 3 3 3 3 2 1 2 1 2 3 2 2 3 3 2 3 3 6 6 4 5 9 8 5 10 2 8 8 1 5 5
8 7 8 18 16 13 10 8 5 1 4 3 3 3 2 2 3 3 4 4 2 2 3 3 1 2 3 4 3 1 3 1 4 2 6 8 9 6 5 6 9 7 7 6 3 3 5
8 7 6 7 18 16 13 10 9 5 1 2 2 1 1 2 3 1 4 3 4 2 2 4 2 3 4 4 3 1 4 3 2 4 5 6 5 3 9 7 1 10 2 3 2 2 5
Wind_Direction
216 234 275 323 345 355 347 346 345 347 346 345 345 346 345 342 339 338 335 331 318 306 300 299 303 325 245 237 263 30 346 1 335 343 2 31 233 226 227 238 236 249 305 287 293 277 283
224 234 256 277 297 308 315 326 332 336 340 339 336 338 339 338 335 333 332 325 315 295 272 265 270 240 242 260 96 8 357 317 27 19 45 353 10 350 99 260 245 345 298 295 299 285 280
237 241 252 263 270 280 287 301 313 324 328 330 331 333 335 336 332 332 329 322 320 291 241 227 240 229 245 310 110 10 337 53 22 10 44 37 16 275 36 209 338 301 294 259 201 311 307
259 259 262 266 265 266 272 283 296 308 315 319 325 329 334 333 332 331 328 325 327 265 179 204 249 227 276 121 81 19 197 120 76 51 54 24 340 323 283 79 212 257 251 329 151 201 98
272 289 278 265 263 259 265 275 284 294 303 309 316 323 328 331 330 329 328 319 340 135 137 207 216 251 239 132 209 91 317 275 138 134 65 268 263 292 210 255 231 214 307 310 326 162 237
42 20 354 316 279 253 258 263 276 284 290 297 308 317 324 329 331 332 329 297 124 157 168 209 249 245 162 198 129 103 77 222 258 207 237 229 238 254 228 262 279 299 306 297 303 269 276
42 28 21 2 331 294 252 264 268 272 281 290 302 313 322 329 334 339 322 238 221 186 207 260 2 320 146 96 176 109 113 187 223 232 249 160 254 234 294 247 302 289 280 285 296 15 309
55 44 36 34 40 41 28 1 314 273 284 286 298 311 320 329 335 337 303 32 31 340 297 194 224 174 94 219 207 170 198 215 215 244 189 224 244 61 91 252 265 275 283 294 321 187 322
52 42 43 42 35 37 30 21 12 5 339 294 292 302 316 327 327 356 49 41 346 331 261 156 183 205 104 208 274 146 227 222 248 245 226 255 12 137 243 266 276 279 277 304 298 319 275
24 54 44 37 41 34 27 24 10 1 347 344 305 280 306 322 279 9 59 32 184 24 277 157 164 100 149 247 231 47 34 297 229 277 274 262 88 236 258 276 269 288 39 306 307 328 307
15 30 50 30 39 31 21 15 4 354 341 343 341 279 293 7 323 324 12 238 197 242 299 90 124 64 103 253 27 143 56 197 257 261 209 53 226 240 274 268 164 261 326 301 315 269 321
29 47 39 21 20 6 359 10 359 349 342 337 333 309 119 294 241 33 338 316 263 278 245 132 126 159 221 201 214 131 214 215 327 270 225 264 71 247 268 292 251 297 300 301 170 310 257
24 35 40 30 11 15 20 6 352 346 334 327 330 100 81 23 20 341 337 277 325 229 310 108 207 205 256 228 243 241 216 207 231 239 216 174 204 135 308 287 194 327 294 309 269 225 310
17 33 25 22 15 18 11 3 350 340 321 312 120 85 63 54 331 311 107 260 239 236 244 106 230 223 243 132 230 234 250 244 209 212 284 265 231 179 53 55 330 14 303 28 299 314 312
3 18 17 16 13 8 4 359 353 346 334 259 130 73 51 8 343 303 112 271 248 306 327 351 257 254 250 173 235 249 225 251 94 192 215 260 224 119 81 77 265 85 242 48 275 114 270
346 359 0 356 6 359 356 343 351 349 7 123 85 78 35 334 342 280 95 223 263 13 343 58 202 210 257 128 240 243 217 122 156 157 168 66 281 165 121 134 121 283 138 206 151 308 301
332 350 354 340 342 347 346 338 340 348 349 17 113 53 31 1 344 27 225 254 309 42 344 285 276 261 242 280 251 250 293 146 171 143 182 160 251 128 156 192 156 156 213 194 297 240 301
341 336 2 342 333 337 338 326 337 341 337 47 109 257 15 332 85 1 266 328 310 294 193 279 261 257 216 260 273 257 264 352 134 156 188 150 302 262 223 104 10 303 282 231 240 153 231
337 311 341 336 338 343 343 329 340 336 336 271 97 84 73 320 231 208 195 268 264 218 214 234 265 239 62 233 256 226 290 26 157 194 204 165 190 291 183 143 154 228 190 225 94 40 228
250 282 326 330 337 345 348 340 343 343 340 151 148 191 66 28 52 261 276 216 244 200 248 240 287 213 194 233 197 294 297 83 211 283 99 172 272 257 272 13 11 212 195 199 216 221 172
282 248 271 315 326 348 341 348 346 342 356 254 185 231 57 185 232 216 256 300 294 291 227 221 244 228 207 262 209 234 249 248 194 160 125 287 270 298 273 276 225 259 220 195 207 246 234
270 281 266 273 303 345 339 354 349 347 354 123 157 175 176 147 171 189 187 224 280 270 226 210 239 347 224 253 258 17 343 235 262 176 230 138 286 332 275 101 210 270 232 210 225 250 260
235 261 275 275 299 323 338 352 357 358 351 63 68 11 299 162 176 224 204 221 265 286 221 261 259 282 240 258 320 301 276 303 289 192 199 204 276 294 275 245 296 265 214 181 186 205 200
214 229 245 270 273 298 336 347 3 1 16 324 53 295 227 246 217 237 204 213 274 229 265 288 213 227 58 71 316 264 43 17 250 198 220 182 219 274 290 304 256 13 53 167 218 222 214
224 223 229 242 247 269 292 333 1 1 0 354 14 321 259 254 205 273 261 240 281 252 257 276 214 31 134 234 260 260 171 233 205 246 185 238 245 262 285 288 301 194 187 172 185 283 202
245 227 226 233 241 248 258 294 353 356 347 347 298 317 281 276 223 228 282 193 291 285 261 195 85 110 236 280 248 267 244 354 177 141 186 161 139 265 225 270 268 306 153 181 180 282 165
228 234 242 223 232 239 240 250 267 350 342 338 296 359 291 258 249 168 255 286 141 165 267 172 157 180 302 226 236 243 260 356 263 184 172 177 194 222 220 272 280 135 147 168 228 252 154
243 253 263 237 231 233 234 234 234 246 338 327 304 17 293 250 286 231 202 186 206 185 259 128 203 175 188 234 251 182 236 104 286 157 187 186 167 194 185 230 276 139 124 200 204 131 154
240 254 272 290 235 235 231 227 228 211 219 2 270 78 299 238 261 261 244 243 227 173 241 183 320 162 230 241 231 247 215 209 238 272 211 240 226 195 215 226 135 200 301 293 329 165 181